SCP
0 0 0 0 0 -0 0 0 0 0 0 0 0 0 0 0 0 0 0 0 0 0 0 0 0 0 0 0 0 0 0 0 0 0 0 0 0 0 0 0 0 0 0 0 0 0 0 0 0
0 0 0 0 0 0 0 0 0 0 0 0 0 0 0 0 0 0 0 0 0 0 0 0 0 0 0 0 0 0 0 0 0 0 0 0 0 0 0 0 0 0 0 0 0 0 0 0 0
0 0 0 0 0 0 0 0 0 0 0 0 0 0 0 0 0 0 0 0 0 0 0 0 0 0 0 0 0 0 0 0 0 0 0 0 0 0 0 0 0 0 0 0 0 0 0 0 0
0 0 0 0 0 0 0 0 0 0 0 0 0 0 0 0 0 0 0 0 0 0 0 0 0 0 0 0 0 0 0 0 0 0 0 0 0 0 0 0 0 0 0 0 0 0 0 0 0
0 0 0 0 0 0 0 0 0 0 0 0 0 0 0 0 0 0 0 0 0 0 0 0 0 0 0 0 0 0 0 0 0 0 0 0 0 0 0 0 0 0 0 0 0 0 0 0 0
0 0 0 0 0 0 0 0 0 0 0 0 0 0 0 0 0 0 0 0 0 0 0 0 0 0 0 0 0 0 0 0 0 0 0 0 0 0 0 0 0 0 0 0 0 0 0 0 0
-0 0 0 0 0 0 0 0 0 0 0 0 0 0 0 0 0 0 0 0 0 0 0 0 0 0 0 0 0 0 0 0 0 0 0 0 0 0 0 0 0 0 0 0 0 0 0 0 0
-0 -0 0 0 0 0 0 0 0 0 0 0 0 0 0 0 0 0 0 0 0 0 0 0 0 0 0 0 0 0 0 0 0 0 0 0 0 0 0 0 0 0 0 0 0 0 0 0 0
-0 -0 -0 0 0 0 0 0 0 0 0 0 0 0 0 0 0 0 0 0 0 0 0 0 0 0 0 0 0 0 0 0 0 0 0 0 0 0 0 0 0 0 0 0 0 0 0 0 0
-0 -0 -0 0 0 0 0 0 0 0 0 0 0 0 0 0 0 0 0 0 0 0 0 0 0 0 0 0 0 0 0 0 0 0 0 0 0 0 0 0 0 0 0 0 0 0 0 0 0
-0 -0 0 0 0 0 0 0 0 0 0 0 0 0 0 0 0 0 0 0 0 0 0 0 0 0 0 0 0 0 0 0 0 0 0 0 0 0 0 0 0 0 0 0 0 0 0 0 0
0 0 0 0 0 0 0 0 0 0 0 0 0 0 0 0 0 0 1 1 0 0 0 0 0 0 0 0 0 0 0 0 0 0 0 0 0 0 0 0 0 0 0 0 0 0 0 0 0
0 0 0 0 0 0 0 0 0 0 0 0 0 0 0 0 0 0 1 1 1 0 0 0 0 0 0 0 0 0 0 0 0 0 0 0 0 0 0 0 0 0 0 0 0 0 0 0 0
0 0 0 0 0 0 0 0 0 0 0 0 0 0 0 1 1 1 1 1 1 0 0 0 0 0 0 0 0 0 0 0 0 0 0 0 0 0 0 0 0 0 0 0 0 0 0 0 0
0 0 0 0 0 0 0 0 0 0 0 0 0 1 1 1 1 1 1 1 1 0 0 0 0 0 0 0 0 0 0 0 0 0 0 0 0 0 0 0 0 0 0 0 0 0 0 0 0
0 0 0 0 0 0 0 0 0 0 0 0 0 1 1 1 1 1 1 1 1 0 0 0 0 0 0 0 0 0 0 0 0 0 0 0 0 0 0 0 0 0 0 0 0 0 0 0 0
0 0 0 0 0 0 0 0 0 0 0 0 0 1 1 1 1 1 1 1 1 1 1 1 1 1 1 0 0 0 0 0 0 0 0 0 0 0 0 0 0 0 0 0 0 0 0 0 0
0 0 0 0 0 0 0 0 0 0 0 0 1 1 1 0 0 0 1 1 1 1 1 1 1 1 1 1 0 0 0 0 0 0 0 0 0 0 0 0 0 0 0 0 0 0 0 0 0
0 0 0 0 0 0 0 0 0 0 0 0 1 1 0 0 0 0 1 1 1 1 1 1 1 1 1 1 1 1 1 0 0 0 0 0 0 0 0 0 0 0 0 0 0 0 0 0 0
0 0 0 0 0 0 0 0 0 0 0 0 0 1 1 1 1 1 1 1 1 1 1 1 1 1 1 1 1 1 1 0 0 0 0 0 0 0 0 0 0 0 0 0 0 0 0 0 0
0 0 0 0 0 0 0 0 0 0 0 0 0 0 1 1 1 1 1 1 1 1 1 1 1 1 1 1 1 1 1 0 0 0 0 0 0 0 0 0 0 0 0 0 0 0 0 0 0
0 0 0 0 0 0 0 0 0 0 0 0 0 0 1 1 1 1 1 1 1 1 1 1 1 1 1 1 1 1 1 0 0 0 0 0 0 0 0 0 0 0 0 0 0 0 0 0 0
0 0 0 0 0 0 0 0 0 0 0 0 0 0 1 1 1 1 1 1 1 1 1 1 1 1 1 1 1 1 1 0 0 0 0 0 0 0 0 0 0 0 0 0 0 0 0 0 0
0 0 0 0 0 0 0 0 0 0 0 0 0 1 1 1 1 1 1 1 1 1 1 1 1 1 1 1 1 1 0 0 0 0 0 0 0 0 0 0 0 0 0 0 0 0 0 0 0
0 0 0 0 0 0 0 0 0 0 0 0 1 1 1 1 0 1 1 1 1 1 1 1 1 1 1 1 1 0 0 0 0 0 0 0 0 0 0 0 0 0 0 0 0 0 0 0 0
0 0 0 0 0 0 0 0 0 0 0 0 0 0 0 0 0 1 1 1 1 1 1 1 1 1 1 1 0 0 0 0 0 0 0 0 0 0 0 0 0 0 0 0 0 0 0 0 0
0 0 0 0 0 0 0 0 0 0 0 0 0 0 0 0 1 1 1 1 1 1 1 1 1 1 1 1 0 0 0 0 0 0 0 0 0 0 0 0 0 0 0 0 0 0 0 0 0
0 0 0 0 0 0 0 0 0 0 0 0 0 0 0 0 1 1 1 1 1 1 1 1 1 1 1 1 0 0 0 0 0 0 0 0 0 0 0 0 0 0 0 0 0 0 0 0 0
0 0 0 0 0 0 0 0 0 0 0 0 0 0 0 1 1 1 1 1 1 1 1 1 1 1 1 1 0 0 0 0 0 0 0 0 0 0 0 0 0 0 0 0 0 0 0 0 0
0 0 0 0 0 0 0 0 0 0 0 0 0 0 0 1 1 1 1 1 1 1 1 1 1 1 1 1 0 0 0 0 0 0 0 0 0 0 0 0 0 0 0 0 0 0 0 0 0
Wind_Speed
3 3 2 2 5 5 1 1 1 2 4 6 9 10 9 6 5 5 3 11 14 11 8 10 11 11 11 10 10 10 10 10 9 9 9 9 9 9 9 8 8 7 7 7 7 7 6 6 6
2 2 2 4 5 2 2 2 2 2 7 8 10 10 9 7 7 9 6 12 14 12 8 9 12 12 11 10 10 10 9 9 9 8 8 8 8 8 8 8 7 7 7 7 6 6 6 6 5
3 2 3 4 2 4 3 2 4 2 4 6 6 6 6 6 8 6 8 15 12 10 7 9 13 12 11 11 10 10 9 9 9 8 8 7 7 7 6 7 7 6 6 6 6 6 6 5 5
1 3 4 3 1 4 4 3 3 4 4 6 9 7 5 4 5 9 14 15 13 9 7 9 13 12 11 11 10 9 9 8 8 7 7 6 6 5 5 5 6 5 5 5 5 5 5 4 4
3 4 4 2 2 2 2 3 3 4 3 6 10 8 4 3 11 15 14 14 13 9 7 8 12 12 11 10 10 9 8 8 7 6 6 6 5 5 5 5 5 4 4 4 4 3 3 3 3
3 4 3 1 2 2 2 3 5 6 6 8 9 8 3 6 12 13 13 12 11 11 7 7 11 11 11 10 10 9 8 7 6 5 6 5 5 4 4 5 4 3 3 3 2 2 2 2 2
4 3 2 2 1 1 1 2 5 6 5 5 8 8 5 7 10 11 11 11 10 10 8 5 6 7 9 9 9 8 7 6 6 5 5 5 4 4 4 4 3 3 3 2 2 1 1 0 1
4 3 0 1 1 2 2 1 4 7 4 7 7 9 8 9 10 11 10 9 9 8 7 5 5 4 4 5 8 8 7 6 5 5 5 4 4 4 3 2 2 2 2 2 2 1 1 0 0
3 3 2 3 3 3 2 2 1 4 6 4 4 7 11 14 13 12 10 8 7 7 5 5 5 4 4 4 6 6 7 6 5 4 4 3 1 0 1 1 2 2 2 3 2 1 1 1 1
4 3 6 5 5 5 3 3 3 4 6 6 8 9 13 13 14 13 12 11 9 8 7 6 6 5 4 4 3 2 3 3 2 1 2 1 1 1 1 1 2 2 2 3 3 2 2 1 0
3 5 4 5 5 5 4 2 3 7 5 9 14 14 13 12 12 12 12 12 11 10 9 7 7 6 5 3 3 2 1 1 1 2 2 1 1 1 1 0 1 2 2 1 1 1 1 1 1
2 4 4 5 4 3 4 3 3 5 8 12 15 16 13 12 11 12 12 11 9 9 8 8 7 6 5 4 3 3 2 2 2 2 2 2 1 0 0 1 1 1 1 1 1 1 1 1 1
3 5 4 4 4 5 4 4 4 4 8 11 13 14 14 12 10 9 10 10 10 9 8 8 8 6 5 4 3 3 3 3 2 2 2 2 2 1 1 1 1 1 1 1 1 1 1 1 1
4 3 4 3 2 3 5 2 3 5 9 10 12 13 13 12 10 8 8 9 9 8 8 8 8 7 6 4 3 3 3 2 2 2 2 3 2 2 1 1 0 0 1 1 1 1 1 1 1
3 2 5 4 2 2 4 1 4 7 9 11 12 11 10 9 9 9 10 9 9 8 7 8 9 7 6 5 4 3 3 3 2 2 2 3 2 2 2 1 0 1 0 1 1 0 1 1 1
4 3 3 6 2 2 5 6 8 7 10 10 10 10 9 8 9 9 9 8 7 7 7 7 8 7 6 4 4 3 3 3 2 2 2 2 3 2 2 1 1 0 0 0 1 1 1 0 0
3 1 3 7 4 2 3 5 6 7 11 10 10 10 10 9 7 7 9 9 8 8 7 6 6 7 6 4 3 3 3 2 2 1 1 2 2 3 2 1 0 0 0 1 0 1 1 1 0
4 3 3 6 5 1 2 5 6 5 10 10 10 9 9 10 10 9 8 9 8 7 6 6 5 5 4 3 3 2 2 1 1 1 1 2 2 2 2 1 0 1 1 1 1 1 1 1 1
4 3 6 8 6 1 3 6 7 5 7 8 8 8 9 8 8 8 8 8 8 6 6 6 6 5 4 3 3 2 1 1 1 1 1 2 1 2 2 1 1 1 1 0 1 1 1 0 1
4 5 7 7 4 1 2 4 3 3 5 8 10 9 9 7 5 7 8 8 8 7 6 5 6 5 5 3 3 2 2 1 1 0 1 1 1 2 2 2 2 1 1 1 1 1 1 0 1
6 6 6 6 5 3 2 5 5 3 0 2 5 7 8 11 10 9 9 8 8 7 6 6 5 5 4 4 3 2 2 2 1 1 1 1 1 2 2 2 2 1 1 1 1 1 2 1 0
7 8 6 4 1 3 1 2 7 4 1 2 3 4 6 7 7 8 8 8 8 8 6 5 5 5 4 4 4 4 3 2 1 1 0 0 1 1 1 1 1 1 1 1 1 1 1 2 0
9 7 3 2 2 1 2 2 7 2 2 4 4 5 6 6 7 7 7 7 7 6 6 5 5 4 4 3 4 4 3 2 1 1 2 1 1 1 1 1 1 1 1 1 1 1 1 2 2
4 2 4 5 4 1 4 3 6 4 5 4 3 5 6 6 6 5 4 4 4 4 4 5 6 4 4 3 3 4 4 3 3 2 1 1 1 1 1 1 1 1 1 1 1 1 1 1 2
4 6 4 5 4 5 3 2 7 5 4 6 7 6 7 6 5 6 6 5 4 5 5 4 5 4 4 4 3 4 4 4 3 2 2 1 0 0 1 1 1 1 0 1 1 1 1 2 2
4 9 8 5 5 5 2 3 6 5 1 2 5 7 8 8 6 6 7 7 6 5 4 4 5 5 4 3 2 2 3 3 2 2 2 2 1 1 1 0 0 0 0 0 0 0 1 1 1
4 4 8 7 2 1 3 3 4 3 2 3 4 5 7 8 7 6 6 6 6 6 5 5 5 4 4 4 3 2 2 3 3 2 2 2 1 1 0 0 1 1 1 1 0 0 0 0 1
6 6 5 5 4 2 4 3 3 3 3 3 5 6 7 6 6 6 6 6 6 5 5 4 5 5 4 5 4 3 3 3 3 2 2 2 1 1 1 1 1 1 2 2 1 1 1 1 1
1 3 4 4 5 6 3 6 5 7 6 5 5 5 7 7 7 6 5 5 5 4 4 4 4 4 4 4 3 3 3 3 3 2 2 2 2 2 1 1 1 1 1 1 1 1 1 1 1
5 5 6 5 3 4 4 6 3 2 3 4 5 5 6 7 6 6 6 5 4 4 3 4 4 4 4 4 3 3 3 3 3 2 2 2 2 2 1 1 1 1 1 1 1 1 1 1 1
Wind_Direction
205 190 143 72 49 48 13 285 55 35 42 62 89 90 87 76 112 136 150 137 137 143 144 133 126 121 115 110 106 104 101 99 98 96 95 93 92 90 88 86 84 84 85 88 90 90 88 90 93
199 177 83 59 77 56 291 229 114 102 121 107 82 84 78 71 89 114 124 140 141 142 142 135 132 126 121 116 111 109 108 105 103 100 100 100 97 94 91 90 88 87 88 87 88 84 81 79 87
227 186 90 72 109 169 219 193 158 123 118 112 92 68 70 104 114 127 141 142 138 138 139 141 136 131 127 122 117 114 113 111 109 106 106 107 102 98 96 95 93 91 91 89 89 83 80 76 80
85 52 46 60 218 210 195 221 134 106 79 85 101 76 60 91 123 134 138 141 137 138 142 146 139 136 131 127 123 120 116 115 116 115 115 115 114 111 107 103 102 98 94 92 90 84 77 75 75
67 72 50 9 277 253 197 210 144 96 77 97 101 99 73 51 113 129 137 139 138 140 145 148 142 140 138 135 130 127 123 120 120 120 124 127 129 127 122 118 115 110 100 98 97 85 72 62 67
52 67 68 305 284 288 250 175 119 96 109 113 107 109 105 128 128 139 138 139 139 140 143 147 147 146 144 142 138 134 130 127 123 122 124 129 135 136 131 130 133 129 119 110 109 103 84 54 50
120 103 176 204 259 325 263 127 122 128 135 138 126 108 129 145 144 142 137 133 134 137 138 140 148 148 150 147 144 141 138 136 131 126 125 124 132 145 143 137 148 158 155 148 156 158 136 57 60
152 107 352 205 180 261 249 107 135 133 131 134 126 132 158 167 148 134 127 126 130 134 141 144 146 146 149 151 150 151 148 146 141 136 134 131 129 137 146 153 161 174 177 165 167 192 213 259 215
121 85 224 210 181 240 235 111 90 104 122 125 122 141 155 151 138 127 122 123 133 140 149 151 151 147 150 154 158 158 156 155 153 153 151 145 138 183 168 191 178 192 202 205 203 222 244 246 269
115 159 227 217 197 201 225 163 152 121 118 106 104 117 137 140 140 140 144 149 156 161 167 166 162 159 156 164 153 160 162 159 156 154 153 148 166 252 224 247 226 221 225 223 225 240 250 256 307
176 197 241 256 228 185 200 195 147 133 145 152 145 146 147 142 146 151 156 162 167 167 167 168 167 163 163 158 152 168 164 159 171 170 163 154 164 275 275 272 259 256 248 249 251 267 278 237 237
236 249 234 246 244 200 197 170 137 158 174 166 153 152 152 152 156 159 161 161 161 159 165 166 166 165 168 155 163 168 169 177 189 192 172 156 160 211 234 210 226 234 246 248 243 253 255 238 221
255 253 253 243 245 204 174 164 157 170 162 154 149 148 152 156 158 160 161 157 154 158 162 168 165 164 167 156 167 166 178 180 183 174 173 163 161 179 192 206 204 228 227 221 227 239 234 223 204
254 248 269 257 249 173 149 182 138 185 158 153 152 157 159 160 155 145 144 153 159 160 161 164 165 166 163 164 170 174 175 170 166 171 172 165 163 168 173 175 194 247 229 212 192 189 177 186 171
315 317 311 281 235 173 115 290 207 190 164 159 161 160 154 154 148 153 158 157 160 158 158 161 166 163 162 168 175 166 168 162 166 180 173 168 163 164 159 156 192 262 234 165 143 139 101 104 110
0 357 309 286 243 221 130 233 242 188 159 163 167 161 153 156 154 155 150 146 149 150 153 162 164 158 162 162 166 155 157 155 168 175 171 170 166 154 142 143 199 243 91 92 114 101 88 65 92
3 273 267 291 270 211 165 223 239 181 162 171 176 167 158 158 160 161 152 148 148 151 155 158 157 161 164 159 152 141 140 148 163 162 162 158 153 146 143 149 209 140 79 61 64 95 109 95 337
245 252 272 269 286 285 211 238 243 189 169 173 172 167 165 168 176 168 153 149 145 144 149 153 148 155 155 142 122 109 110 140 137 143 157 147 151 137 123 118 98 86 78 53 55 69 82 129 187
226 263 274 271 277 288 229 235 234 207 175 176 173 171 169 179 172 154 150 147 140 137 141 151 146 151 146 144 146 142 154 159 151 154 145 146 149 136 125 124 118 87 94 127 116 106 99 52 85
238 263 277 286 286 225 227 257 258 212 190 183 175 173 166 153 144 152 154 150 151 152 151 152 153 150 152 158 156 148 144 144 151 133 78 120 124 124 131 137 142 131 108 64 80 124 118 181 94
244 219 236 256 309 358 60 334 312 298 195 163 171 171 164 163 164 168 164 158 156 156 163 158 154 144 144 135 115 98 77 60 52 39 26 5 99 117 123 137 141 140 141 170 195 159 141 170 307
243 235 221 232 221 282 123 250 286 269 267 210 190 165 163 163 160 165 162 162 162 166 162 146 143 135 133 130 133 136 137 147 184 159 146 5 48 93 118 128 141 141 143 146 178 147 144 140 153
221 229 207 206 174 294 308 162 278 281 229 224 192 164 155 155 149 156 160 166 165 158 153 146 140 135 134 137 142 145 138 147 131 103 86 61 19 34 67 105 118 119 152 168 155 136 134 149 158
202 53 25 40 67 305 256 181 271 251 220 202 169 149 144 143 142 140 132 132 146 142 143 151 146 139 137 143 142 143 141 136 118 103 103 68 16 15 23 75 84 102 149 174 182 188 178 181 174
108 91 34 360 7 256 265 173 248 256 228 184 165 146 143 144 144 146 150 147 148 145 149 153 147 150 153 147 145 145 144 140 142 146 142 137 93 350 332 43 67 70 91 173 166 179 200 193 191
186 142 157 191 220 268 313 223 258 285 312 141 137 135 138 141 148 155 158 154 154 150 144 150 160 160 160 151 145 145 146 142 140 148 155 164 184 211 243 74 100 98 57 75 131 151 210 204 215
166 173 170 147 179 253 276 267 308 339 11 117 136 135 144 154 153 154 148 147 151 153 156 156 158 155 159 159 152 166 157 148 149 154 149 164 182 187 138 76 53 32 38 42 78 75 298 183 230
158 159 107 126 158 224 268 246 228 255 239 193 166 158 159 153 146 145 150 154 154 160 161 149 154 163 162 158 173 179 169 159 148 139 145 156 156 142 126 90 57 48 44 35 46 25 7 17 308
115 107 118 137 154 161 216 258 225 208 200 190 182 162 154 151 150 154 153 147 144 145 148 151 150 144 148 153 163 171 170 160 146 147 164 166 154 139 134 133 101 81 52 30 33 360 11 5 341
167 168 146 153 217 171 175 258 291 190 195 172 156 141 144 143 146 149 144 134 133 141 150 153 152 152 162 156 157 174 173 154 151 166 182 171 165 160 141 127 99 78 62 55 51 318 349 29 359